Weather History for Muncie, IN

Change the Weather History Date:

Monday, April 9, 2012

  Actual Average Record
Temperature  
Mean Temperature 50 °F 49 °F  
Max Temperature 64 °F 59 °F 83 °F (2013)
Min Temperature 36 °F 39 °F 17 °F (1997)
Degree Days  
Heating Degree Days 15 16  
Month to date heating degree days 105 160  
Since 1 July heating degree days 4356 5330  
Cooling Degree Days 0 0  
Month to date cooling degree days 1 0  
Year to date cooling degree days 38 1  
Moisture  
Dew Point 23 °F    
Average Humidity 42    
Maximum Humidity 70    
Minimum Humidity 14    
Precipitation  
Precipitation 0.00 in 0.13 in 0.75 in (1993)
Month to date precipitation T 1.10  
Year to date precipitation 7.16 8.59  
Sea Level Pressure  
Sea Level Pressure 29.97 in    
Wind  
Wind Speed 11 mph (WNW)    
Max Wind Speed 32 mph    
Max Gust Speed 40 mph    
Visibility 10 miles    
Events      
T = Trace of Precipitation, MM = Missing Value Source: NWS Daily Summary

Daily Weather History Graph

Daily Weather History Graph

Search for Another Location

Airport:

Trip Planner

Search our weather history database for the weather conditions in past years. The results will help you decide how hot, cold, wet, or windy it might be!

Date:

Astronomy

Apr. 09, 2012 Rise Set
Actual Time 7:11 AM EDT 8:14 PM EDT
Civil Twilight 6:44 AM EDT 8:42 PM EDT
Nautical Twilight 6:11 AM EDT 9:15 PM EDT
Astronomical Twilight 5:36 AM EDT 9:50 PM EDT
Moon No Moon Rise 8:58 AM EDT (4/9)
Length of Visible Light 13h 58m
Length of Day
13h 02m
Waning Gibbous, 88% of the Moon is Illuminated
Apr 9
Waning Gibbous
Apr 13
Last Quarter
Apr 21
New
Apr 29
First Quarter
May 5
Full

Hourly Weather History & Observations

Time (EDT) Temp. Windchill Dew Point Humidity Pressure Visibility Wind Dir Wind Speed Gust Speed Precip Events Conditions
12:53 AM 46.0 °F 43.9 °F 24.1 °F 42% 30.09 in 10.0 mi North 4.6 mph - N/A   Clear
1:53 AM 43.0 °F - 26.1 °F 51% 30.09 in 10.0 mi Calm Calm - N/A   Clear
2:53 AM 41.0 °F - 27.0 °F 57% 30.06 in 10.0 mi Calm Calm - N/A   Clear
3:53 AM 39.9 °F - 26.1 °F 58% 30.05 in 10.0 mi Calm Calm - N/A   Clear
4:53 AM 37.0 °F - 28.0 °F 70% 30.03 in 10.0 mi Calm Calm - N/A   Clear
5:53 AM 41.0 °F - 30.0 °F 65% 30.01 in 10.0 mi Calm Calm - N/A   Overcast
6:53 AM 46.9 °F - 27.0 °F 46% 29.99 in 10.0 mi WSW 3.5 mph - N/A   Overcast
7:53 AM 44.1 °F - 32.0 °F 63% 30.01 in 10.0 mi Calm Calm - N/A   Overcast
8:53 AM 48.0 °F - 30.9 °F 52% 29.99 in 10.0 mi SSE 4.6 mph - N/A   Overcast
9:53 AM 53.1 °F - 28.9 °F 40% 29.97 in 10.0 mi WSW 3.5 mph - N/A   Clear
10:53 AM 57.0 °F - 30.0 °F 36% 29.97 in 10.0 mi WNW 10.4 mph - N/A   Clear
11:53 AM 60.1 °F - 28.9 °F 31% 29.96 in 10.0 mi West 17.3 mph 25.3 mph N/A   Clear
12:53 PM 63.0 °F - 24.1 °F 23% 29.96 in 10.0 mi WNW 23.0 mph 33.4 mph N/A   Partly Cloudy
1:53 PM 64.0 °F - 19.0 °F 18% 29.95 in 10.0 mi WNW 21.9 mph 34.5 mph N/A   Partly Cloudy
2:53 PM 64.0 °F - 16.0 °F 16% 29.94 in 10.0 mi West 28.8 mph 38.0 mph N/A   Partly Cloudy
3:53 PM 63.0 °F - 15.1 °F 16% 29.93 in 10.0 mi NW 26.5 mph 40.3 mph N/A   Clear
5:53 PM 63.0 °F - 14.0 °F 15% 29.91 in 10.0 mi WNW 25.3 mph 33.4 mph N/A   Clear
6:53 PM 62.1 °F - 15.1 °F 16% 29.90 in 10.0 mi NW 20.7 mph 32.2 mph N/A   Partly Cloudy
7:53 PM 57.9 °F - 16.0 °F 19% 29.90 in 10.0 mi NW 18.4 mph 23.0 mph N/A   Clear
8:53 PM 55.0 °F - 17.1 °F 23% 29.90 in 10.0 mi NW 10.4 mph - N/A   Partly Cloudy
9:53 PM 53.1 °F - 18.0 °F 25% 29.92 in 10.0 mi WNW 11.5 mph - N/A   Clear
10:53 PM 52.0 °F - 18.0 °F 26% 29.93 in 10.0 mi WNW 11.5 mph - N/A   Clear
11:53 PM 46.9 °F - 18.0 °F 32% 29.93 in 10.0 mi WNW 8.1 mph - N/A   Clear